Weather in Verkhniy Zhirim

Russia / Republic of Buryatia     51°19′09″N   107°13′16″E
temp.,
°C
wind,
m/s
gust,
m/s
humid.,
%
clouds,
%
prec.,
mm/h
press.,
hPa
HPBL,
m
12 august, fri
fri1223:00+15nnw226757 0.0 101023
02:00+15nw117196 0.0 101026
05:00+12wnw11870 0.0 101110
08:00+17nw49580 0.0 1010774
11:00+21nw58428 0.0 10091665
14:00+23nw5736100 0.0 10072212
17:00+23nw563792 0.0 10062326
20:00+17n2253100 0.0 100714
13 august, sat
sat1323:00+14nne2263100 0.0 100818
02:00+13nne11698 0.0 100911
05:00+11nne11766 0.0 100810
08:00+16nne0056100 0.0 1008179
11:00+22ssw2240100 0.0 10061286
14:00+25wsw2229100 0.0 10042045
17:00+24sw2232100 0.0 10021783
20:00+19wnw1149100 0.0 100311
14 august, sun
sun1423:00+17n2253100 0.0 100312
02:00+14n1163100 0.0 100311
05:00+13n2270100 0.0 100330
08:00+16n3553100 0.0 1003265
11:00+22n4640100 0.0 10031093
14:00+25n55319 0.0 10012379
17:00+25nne553129 0.0 10022390
20:00+19n3451100 0.0 100446
15 august, mon
mon1523:00+15n226583 0.0 100629
02:00+15wsw006989 0.0 100611
05:00+16w1167100 0.0 100611
08:00+18s226295 0.0 1006234
11:00+22s45445 0.0 1005983
14:00+26ssw673534 0.0 10012412
17:00+26sw68339 0.0 9992642
20:00+15nnw51193100 3.4 1003697
16 august, tue
tue1623:00+13nnw239647 0.1 100762
02:00+11nnw229419 0.1 100847
05:00+9n22965 0.0 100929
08:00+12n248599 0.0 1009319
11:00+17nne335043 0.0 10081091
14:00+23ne113153 0.0 10052027
17:00+22ene223178 0.0 10032140
20:00+16nne375187 0.0 1003142